Erieau, Ontario

8:05 AM EST on December 17, 2017 (GMT -0500)
Erieau

Weather History for CWAJ - October, 2012

Change the Weather History Date:

Sunday, October 14, 2012

  Actual Average Record
Temperature  
Mean Temperature 62 °F -  
Max Temperature 64 °F - - ()
Min Temperature 59 °F - - ()
Degree Days  
Heating Degree Days 4    
Growing Degree Days 12 (Base 50)    
Moisture  
Dew Point 58 °F    
Average Humidity 82    
Maximum Humidity 87    
Minimum Humidity 73    
Precipitation  
Precipitation 0.00 in - - ()
Sea Level Pressure  
Sea Level Pressure 29.76 in    
Wind  
Wind Speed 15 mph ()    
Max Wind Speed 24 mph    
Max Gust Speed 31 mph    
T = Trace of Precipitation, MM = Missing Value Source: Averaged Metar Reports

Daily Weather History Graph

Daily Weather History Graph

Search for Another Location

Airport or City:

Trip Planner

Search our weather history database for the weather conditions in past years. The results will help you decide how hot, cold, wet, or windy it might be!

Date:

Astronomy

Oct. 14, 2012 Rise Set
Actual Time 7:39 AM EDT 6:46 PM EDT
Civil Twilight 7:11 AM EDT 7:14 PM EDT
Nautical Twilight 6:38 AM EDT 7:47 PM EDT
Astronomical Twilight 6:06 AM EDT 8:19 PM EDT
Moon 6:36 AM EDT (10/14) 6:05 PM EDT (10/14)
Length of Visible Light 12h 03m
Length of Day
11h 06m
Waning Crescent, 1% of the Moon is Illuminated
Oct 14
Waning Crescent
Oct 15
New
Oct 21
First Quarter
Oct 29
Full
Nov 6
Last Quarter

Hourly Weather History & Observations

Time (EDT) Temp. Dew Point Humidity Pressure Visibility Wind Dir Wind Speed Gust Speed Precip Events Conditions
12:00 AM 59.5 °F 55.6 °F 87% 29.92 in - SSW 15.0 mph - N/A   Unknown
1:00 AM 60.8 °F 56.1 °F 85% 29.91 in - SSW 19.6 mph - N/A   Unknown
2:00 AM 62 °F 57 °F 80% 29.90 in - SSW 16.1 mph - -  
2:00 AM 61.5 °F 57.4 °F 86% 29.90 in - SSW 16.1 mph - N/A   Unknown
3:00 AM 62.1 °F 58.1 °F 87% 29.89 in - SSW 16.1 mph - N/A   Unknown
4:00 AM 62.1 °F 58.1 °F 87% 29.88 in - SSW 16.1 mph - N/A   Unknown
5:00 AM 62.1 °F 58.1 °F 87% 29.88 in - SSW 13.8 mph - N/A   Unknown
6:00 AM 62.4 °F 57.7 °F 85% 29.88 in - SSW 16.1 mph - N/A   Unknown
8:00 AM 63 °F 58 °F 78% 29.87 in - South 18.4 mph - -  
8:00 AM 62.6 °F 57.9 °F 85% 29.87 in - South 18.4 mph - N/A   Unknown
9:00 AM 62.6 °F 57.9 °F 85% 29.86 in - South 16.1 mph - N/A   Unknown
10:00 AM 63.0 °F 58.1 °F 84% 29.84 in - South 13.8 mph - N/A   Unknown
11:00 AM 63.1 °F 57.7 °F 83% 29.82 in - South 13.8 mph 20.7 mph N/A   Unknown
12:00 PM 64.0 °F 57.7 °F 80% 29.79 in - South 15.0 mph - N/A   Unknown
1:00 PM 63.5 °F 58.1 °F 83% 29.75 in - South 15.0 mph - N/A   Unknown
2:00 PM 64 °F 57 °F 73% 29.72 in - South 17.3 mph - -  
3:00 PM 63.5 °F 57.7 °F 81% 29.70 in - South 11.5 mph - N/A   Unknown
4:00 PM 63.1 °F 57.6 °F 82% 29.68 in - SSW 11.5 mph - N/A   Unknown
5:00 PM 63.3 °F 58.3 °F 84% 29.65 in - South 19.6 mph - N/A   Unknown
7:00 PM 64.6 °F 58.5 °F 80% 29.60 in - South 23.0 mph - N/A   Unknown
8:00 PM 64 °F 58 °F 76% 29.57 in - SSE 19.6 mph - -  
8:00 PM 63.9 °F 58.3 °F 82% 29.57 in - SSE 19.6 mph - N/A   Unknown
9:00 PM 64.6 °F 58.3 °F 80% 29.55 in - South 24.2 mph 31.1 mph N/A   Unknown
10:00 PM 63.7 °F 58.1 °F 82% 29.52 in - South 21.9 mph - N/A   Unknown
11:00 PM 64.4 °F 57.4 °F 78% 29.49 in - South 20.7 mph 27.6 mph N/A   Unknown